This is the latest recevied weather packets stored in our database for station/object VK3AGD-9. If no packets are shown the sender has not sent any weather packets the latest 10 day(s).
| Time | Temp. | Humidity | Pressure | Rain* | Wind** | Luminosity | Snow |
|---|---|---|---|---|---|---|---|
| 1787898629 | 11.67° C | 97% | - | 0 mm | - | - | - |
| 1787897764 | 12.22° C | 97% | - | 0 mm | - | - | - |
| 1787896901 | 11.67° C | 97% | - | 0 mm | - | - | - |
| 1787895940 | 11.67° C | 98% | - | 0 mm | - | - | - |
| 1787895076 | 11.67° C | 98% | - | 0 mm | - | - | - |
| 1787894212 | 11.11° C | 98% | - | 0 mm | - | - | - |
| 1787893251 | 11.11° C | 97% | - | 0 mm | - | - | - |
| 1787892388 | 11.11° C | 95% | - | 0 mm | - | - | - |
| 1787891428 | 11.67° C | 93% | - | 0 mm | - | - | - |
| 1787890564 | 12.78° C | 92% | - | 0 mm | - | - | - |
| 1787889699 | 12.78° C | 91% | - | 0 mm | - | - | - |
| 1787888739 | 12.78° C | 88% | - | 0 mm | - | - | - |
| 1787887876 | 13.33° C | 82% | - | 0 mm | - | - | - |
| 1787887011 | 13.33° C | 80% | - | 0 mm | - | - | - |
| 1787886052 | 13.33° C | 79% | - | 0 mm | - | - | - |
| 1787885189 | 13.33° C | 80% | - | 0 mm | - | - | - |
| 1787884228 | 13.33° C | 80% | - | 0 mm | - | - | - |
| 1787883365 | 13.33° C | 78% | - | 0 mm | - | - | - |
| 1787882501 | 13.33° C | 77% | - | 0 mm | - | - | - |
| 1787881540 | 13.89° C | 75% | - | 0 mm | - | - | - |
| 1787880676 | 13.89° C | 74% | - | 0 mm | - | - | - |
| 1787879813 | 14.44° C | 71% | - | 0 mm | - | - | - |
| 1787878852 | 15° C | 70% | - | 0 mm | - | - | - |
| 1787877988 | 15° C | 70% | - | 0 mm | - | - | - |
| 1787877029 | 13.89° C | 71% | - | 0 mm | - | - | - |
* Rain latest hour (hover to see other rain measurements)
** Current wind speed in m/s (hover to see current wind gust speed)